Weather Roundup
Issued by NWS Chicago, IL

Home | Current Version | Previous Version | Graphics & Text | Print | Product List | Glossary On
Versions: 1 2 3 4 5 6 7 8 9 10 11 12 13 14 15 16 17 18 19 20 21 22 23 24 25 26 27 28 29 30 31 32 33 34 35 36 37 38 39 40 41 42 43 44 45 46 47 48 49 50
000
NZUS59 KLOT 212303
HRRLOT

CHICAGO AREA WEATHER ROUNDUP
NATIONAL WEATHER SERVICE CHICAGO/ROMEOVILLE IL
500 PM CST SUN JAN 21 2018

NOTE: "FAIR" INDICATES FEW OR NO CLOUDS BELOW 12,000 FEET WITH NO
SIGNIFICANT WEATHER AND/OR OBSTRUCTIONS TO VISIBILITY.

* THESE STATIONS ARE NOT UNDER NWS QUALITY CONTROL. THEY ALSO MAY NOT
  REPORT WEATHER SUCH AS PRECIPITATION OR FOG.

ILZ005-006-012>014-019>023-220000-
NORTHEAST ILLINOIS

CITY           SKY/WX    TMP DP  RH WIND       PRES   REMARKS
OHARE          FOG       43  40  89 E6        29.90R VSB 1/4
MIDWAY         CLOUDY    43  42  97 E5        29.91R FOG
AURORA         FOG       42  42 100 E6        29.89R VSB 1/4
LANSING*       FOG       44  44 100 CALM      29.91S VSB 1
JOLIET*        FOG       44  44 100 SE5       29.89S VSB 1/2
WAUKEGAN       FOG       36  36 100 NE5       29.91S VSB 1/2
DUPAGE AIRPORT FOG       42  42 100 E5        29.89R VSB<1/4
WHEELING       FOG       43  42  97 CALM      29.92S VSB 1
KANKAKEE*      FOG      N/A N/A N/A SE6       29.91S VSB<1/4
MORRIS*        FOG       44  43  97 E6        29.88S VSB 1/4
NORTHERLY ISL    N/A     36  34  92 E1          N/A
$$

WIZ051-052-058>065-066-070>072-220000-
SOUTHEAST WISCONSIN

CITY           SKY/WX    TMP DP  RH WIND       PRES   REMARKS
MILWAUKEE      FOG       37  36  96 NE5       29.93S VSB 1/2
KENOSHA*       FOG       36  35  96 E6        29.91S VSB 1/8
RACINE*        FOG       37  37 100 E7        29.94R VSB 1/4
WAUKESHA       FOG       36  34  93 E5        29.93R VSB 3/4
$$

INZ001>003-010>013-019-020-220000-
NORTHWEST INDIANA

CITY           SKY/WX    TMP DP  RH WIND       PRES   REMARKS
GARY*          FOG       46  45  93 VRB3      29.92S VSB 1
MICHIGAN CITY* NOT AVBL
RENSSELAER*    NOT AVBL
VALPARAISO     FOG       44  44 100 SE7       29.93S VSB 1/4
$$

LMZ740>746-220000-
SOUTHERN LAKE MICHIGAN

STATION/POSITION TIME  SKY/WX   TEMP WIND        PRES    VSBY
                                AIR  DIR/SP/G
                 (UTC)          (F)  (DEG/KT/KT) (MB)    (MI)
HARRISON CRIB    2240            41  110/ 14/ 14   N/A
BURNHAM HARBOR   2300            36   40/  2       N/A
CALUMET HARBOR   2230            36  320/  2/  2 1012.4R
BURNS HARBOR     2240            45  170/  5/  8 1013.9S
MICHIGAN CITY    2240            43  130/  4/  5   N/A
$$

ABBREVIATIONS USED IN REMARKS
   TC - TEMPERATURE IN CELSIUS
  WCI - WIND CHILL INDEX
   HX - HEAT INDEX
  VSB - VISIBILITY
$$




USA.gov is the U.S. government's official web portal to all federal, state and local government web resources and services.